Weather History for KDBN - January, 2015

Change the Weather History Date:

Tuesday, January 27, 2015

  Actual Average Record
Temperature  
Mean Temperature 42 °F -  
Max Temperature 53 °F 57 °F 82 °F (1950)
Min Temperature 30 °F 32 °F 11 °F (1940)
Degree Days  
Heating Degree Days 24    
Moisture  
Dew Point 33 °F    
Average Humidity 75    
Maximum Humidity 100    
Minimum Humidity 44    
Precipitation  
Precipitation 0.00 in - - ()
Sea Level Pressure  
Sea Level Pressure 29.98 in    
Wind  
Wind Speed 7 mph (NW)    
Max Wind Speed 24 mph    
Max Gust Speed 34 mph    
Visibility 10 miles    
Events      
Averages and records for this station are not official NWS values.
T = Trace of Precipitation, MM = Missing Value Source: NWS Daily Summary

Daily Weather History Graph

Daily Weather History Graph

Search for Another Location

Airport or City:

Trip Planner

Search our weather history database for the weather conditions in past years. The results will help you decide how hot, cold, wet, or windy it might be!

Date:

Astronomy

Jan. 27, 2015 Rise Set
Actual Time 7:29 AM EST 6:00 PM EST
Civil Twilight 7:03 AM EST 6:26 PM EST
Nautical Twilight 6:33 AM EST 6:55 PM EST
Astronomical Twilight 6:04 AM EST 7:24 PM EST
Moon 12:19 PM EST (1/27) 1:01 AM EST (1/27)
Length of Visible Light 11h 22m
Length of Day
10h 30m
First Quarter, 55% of the Moon is Illuminated
Jan 27
First Quarter
Feb 3
Full
Feb 11
Last Quarter
Feb 18
New
Feb 25
First Quarter

Hourly Weather History & Observations

Time (EST) Temp. Windchill Dew Point Humidity Pressure Visibility Wind Dir Wind Speed Gust Speed Precip Events Conditions
12:15 AM 35.6 °F 29.9 °F 32.0 °F 87% 29.96 in 10.0 mi West 6.9 mph - N/A   Scattered Clouds
12:35 AM 33.8 °F 29.6 °F 32.0 °F 93% 29.96 in 10.0 mi West 4.6 mph - N/A   Scattered Clouds
12:55 AM 35.6 °F 31.7 °F 32.0 °F 87% 29.96 in 10.0 mi WNW 4.6 mph - N/A   Mostly Cloudy
1:15 AM 35.6 °F 30.7 °F 32.0 °F 87% 29.96 in 10.0 mi WNW 5.8 mph - N/A   Overcast
1:35 AM 35.6 °F 30.7 °F 30.2 °F 81% 29.96 in 10.0 mi WNW 5.8 mph - N/A   Scattered Clouds
1:55 AM 33.8 °F 28.6 °F 32.0 °F 93% 29.96 in 10.0 mi West 5.8 mph - N/A   Clear
2:15 AM 33.8 °F 28.6 °F 32.0 °F 93% 29.97 in 10.0 mi West 5.8 mph - N/A   Clear
2:35 AM 33.8 °F 28.6 °F 32.0 °F 93% 29.97 in 10.0 mi West 5.8 mph - N/A   Clear
2:55 AM 33.8 °F 29.6 °F 32.0 °F 93% 29.96 in 10.0 mi West 4.6 mph - N/A   Scattered Clouds
3:15 AM 32.0 °F 27.5 °F 32.0 °F 100% 29.96 in 10.0 mi West 4.6 mph - N/A   Scattered Clouds
3:35 AM 32.0 °F 28.7 °F 32.0 °F 100% 29.95 in 10.0 mi West 3.5 mph - N/A   Clear
3:55 AM 32.0 °F 28.7 °F 32.0 °F 100% 29.95 in 10.0 mi West 3.5 mph - N/A   Clear
4:15 AM 32.0 °F 28.7 °F 32.0 °F 100% 29.94 in 10.0 mi West 3.5 mph - N/A   Clear
4:35 AM 32.0 °F 28.7 °F 32.0 °F 100% 29.94 in 10.0 mi West 3.5 mph - N/A   Clear
4:55 AM 32.0 °F - 32.0 °F 100% 29.93 in 10.0 mi Calm Calm - N/A   Clear
5:15 AM 32.0 °F - 32.0 °F 100% 29.93 in 10.0 mi Calm Calm - N/A   Clear
5:35 AM 30.2 °F - 30.2 °F 100% 29.93 in 10.0 mi Calm Calm - N/A   Clear
5:55 AM - - - N/A% 29.93 in 10.0 mi Calm Calm - N/A   Scattered Clouds
6:15 AM 32.0 °F 27.5 °F 32.0 °F 100% 29.93 in 10.0 mi West 4.6 mph - N/A   Overcast
6:35 AM 32.0 °F 26.4 °F 32.0 °F 100% 29.93 in 10.0 mi West 5.8 mph - N/A   Overcast
6:55 AM 32.0 °F 28.7 °F 32.0 °F 100% 29.94 in 10.0 mi WNW 3.5 mph - N/A   Overcast
7:15 AM 33.8 °F 30.8 °F 33.8 °F 100% 29.94 in 10.0 mi WNW 3.5 mph - N/A   Overcast
7:35 AM 33.8 °F - 33.8 °F 100% 29.95 in 10.0 mi Calm Calm - N/A   Overcast
7:55 AM 33.8 °F - 33.8 °F 100% 29.95 in 10.0 mi Calm Calm - N/A   Overcast
8:15 AM 33.8 °F 30.8 °F 33.8 °F 100% 29.96 in 10.0 mi West 3.5 mph - N/A   Overcast
8:35 AM 33.8 °F 30.8 °F 33.8 °F 100% 29.96 in 10.0 mi WNW 3.5 mph - N/A   Scattered Clouds
8:55 AM 35.6 °F - 35.6 °F 100% 29.96 in 10.0 mi Calm Calm - N/A   Scattered Clouds
9:15 AM 37.4 °F 33.8 °F 37.4 °F 100% 29.96 in 10.0 mi NW 4.6 mph - N/A   Mostly Cloudy
9:35 AM 37.4 °F 30.8 °F 37.4 °F 100% 29.96 in 10.0 mi WNW 9.2 mph - N/A   Overcast
9:55 AM 39.2 °F 35.0 °F 37.4 °F 93% 29.97 in 10.0 mi WNW 5.8 mph - N/A   Overcast
10:15 AM 41.0 °F 37.1 °F 33.8 °F 76% 29.97 in 10.0 mi WNW 5.8 mph - N/A   Overcast
10:35 AM 42.8 °F 38.6 °F 33.8 °F 70% 29.97 in 10.0 mi NW 6.9 mph - N/A   Overcast
10:55 AM 44.6 °F 40.7 °F 33.8 °F 66% 29.97 in 10.0 mi NW 6.9 mph - N/A   Overcast
11:15 AM 46.4 °F 40.7 °F 35.6 °F 66% 29.96 in 10.0 mi NNW 12.7 mph 16.1 mph N/A   Scattered Clouds
11:35 AM 46.4 °F 43.5 °F 35.6 °F 66% 29.96 in 10.0 mi NW 5.8 mph 19.6 mph N/A   Clear
11:55 AM 48.2 °F - 35.6 °F 62% 29.95 in 10.0 mi NW 8.1 mph 20.7 mph N/A   Clear
12:15 PM 50.0 °F - 35.6 °F 58% 29.94 in 10.0 mi NW 12.7 mph 16.1 mph N/A   Clear
12:35 PM 51.8 °F - 33.8 °F 50% 29.93 in 10.0 mi NW 16.1 mph 25.3 mph N/A   Clear
12:55 PM 50.0 °F - 33.8 °F 54% 29.93 in 10.0 mi NW 16.1 mph 25.3 mph N/A   Mostly Cloudy
1:15 PM 51.8 °F - 32.0 °F 47% 29.93 in 10.0 mi NW 24.2 mph 34.5 mph N/A   Overcast
1:35 PM 51.8 °F - 32.0 °F 47% 29.93 in 10.0 mi NW 12.7 mph 21.9 mph N/A   Overcast
1:55 PM 51.8 °F - 32.0 °F 47% 29.93 in 10.0 mi NW 17.3 mph 23.0 mph N/A   Mostly Cloudy
2:15 PM 53.6 °F - 32.0 °F 44% 29.93 in 10.0 mi NNW 15.0 mph 27.6 mph N/A   Overcast
2:35 PM 50.0 °F - 32.0 °F 50% 29.94 in 10.0 mi NNW 15.0 mph 25.3 mph N/A   Overcast
2:55 PM 50.0 °F - 32.0 °F 50% 29.95 in 10.0 mi NNW 15.0 mph 19.6 mph N/A   Overcast
3:15 PM 50.0 °F - 32.0 °F 50% 29.95 in 10.0 mi North 13.8 mph 17.3 mph N/A   Overcast
3:35 PM 50.0 °F - 32.0 °F 50% 29.96 in 10.0 mi NNW 16.1 mph 21.9 mph N/A   Mostly Cloudy
3:55 PM 50.0 °F - 32.0 °F 50% 29.97 in 10.0 mi NW 9.2 mph 19.6 mph N/A   Scattered Clouds
4:15 PM 51.8 °F - 32.0 °F 47% 29.96 in 10.0 mi NNW 13.8 mph 20.7 mph N/A   Scattered Clouds
4:35 PM 51.8 °F - 32.0 °F 47% 29.96 in 10.0 mi WNW 13.8 mph 23.0 mph N/A   Clear
4:55 PM 50.0 °F - 32.0 °F 50% 29.97 in 10.0 mi NW 11.5 mph 16.1 mph N/A   Clear
5:15 PM 50.0 °F - 32.0 °F 50% 29.98 in 10.0 mi NW 8.1 mph 17.3 mph N/A   Clear
5:35 PM 50.0 °F - 30.2 °F 47% 29.99 in 10.0 mi NW 9.2 mph - N/A   Clear
5:55 PM 46.4 °F 41.5 °F 32.0 °F 57% 30.00 in 10.0 mi NNW 10.4 mph - N/A   Clear
6:15 PM 46.4 °F 41.9 °F 32.0 °F 57% 30.01 in 10.0 mi NNW 9.2 mph - N/A   Clear
6:35 PM 46.4 °F 43.5 °F 32.0 °F 57% 30.01 in 10.0 mi NNW 5.8 mph - N/A   Clear
6:55 PM 44.6 °F 41.4 °F 32.0 °F 61% 30.03 in 10.0 mi NW 5.8 mph - N/A   Clear
7:15 PM 44.6 °F 39.7 °F 32.0 °F 61% 30.03 in 10.0 mi NNW 9.2 mph - N/A   Clear
7:35 PM 44.6 °F 39.2 °F 30.2 °F 57% 30.04 in 10.0 mi NNW 10.4 mph - N/A   Clear
7:55 PM 42.8 °F 38.6 °F 30.2 °F 61% 30.04 in 10.0 mi NNW 6.9 mph - N/A   Clear
8:15 PM 42.8 °F 41.1 °F 30.2 °F 61% 30.04 in 10.0 mi North 3.5 mph - N/A   Clear
8:35 PM 42.8 °F 41.1 °F 30.2 °F 61% 30.05 in 10.0 mi NNW 3.5 mph - N/A   Clear
8:55 PM 41.0 °F 39.0 °F 32.0 °F 70% 30.05 in 10.0 mi NW 3.5 mph - N/A   Clear
9:15 PM 41.0 °F 39.0 °F 32.0 °F 70% 30.06 in 10.0 mi NW 3.5 mph - N/A   Clear
9:35 PM 41.0 °F 38.0 °F 32.0 °F 70% 30.07 in 10.0 mi NW 4.6 mph - N/A   Clear
9:55 PM 41.0 °F 35.8 °F 32.0 °F 70% 30.08 in 10.0 mi NNW 8.1 mph - N/A   Clear
10:15 PM 41.0 °F 34.7 °F 32.0 °F 70% 30.08 in 10.0 mi NW 10.4 mph - N/A   Clear
10:35 PM 39.2 °F 31.6 °F 32.0 °F 75% 30.09 in 10.0 mi NNW 12.7 mph - N/A   Clear
10:55 PM 39.2 °F 33.6 °F 32.0 °F 75% 30.09 in 10.0 mi NNW 8.1 mph - N/A   Clear
11:15 PM 37.4 °F 30.8 °F 32.0 °F 81% 30.10 in 10.0 mi NNW 9.2 mph - N/A   Clear
11:35 PM 37.4 °F 30.8 °F 32.0 °F 81% 30.10 in 10.0 mi NW 9.2 mph - N/A   Clear
11:55 PM 37.4 °F 30.8 °F 32.0 °F 81% 30.11 in 10.0 mi NNW 9.2 mph - N/A   Clear